CST,Max TemperatureF,Mean TemperatureF,Min TemperatureF,Max Dew PointF,MeanDew PointF,Min DewpointF,Max Humidity, Mean Humidity, Min Humidity, Max Sea Level PressureIn, Mean Sea Level PressureIn, Min Sea Level PressureIn, Max VisibilityMiles, Mean VisibilityMiles, Min VisibilityMiles, Max Wind SpeedMPH, Mean Wind SpeedMPH, Max Gust SpeedMPH,PrecipitationIn, CloudCover, Events, WindDirDegrees
2013-1-1,35,24,14,34,24,12,100,91,81,30.34,30.25,30.11,10,7,2,15,7,17,0.00,6,Snow,359
2013-1-2,39,24,10,28,20,9,92,80,60,30.34,30.29,30.21,10,10,6,13,3,16,0.00,1,,238
2013-1-3,43,30,16,28,22,14,96,79,45,30.48,30.43,30.31,10,9,6,6,0,,0.00,1,,303
2013-1-4,50,31,12,27,20,10,92,67,33,30.49,30.41,30.33,10,10,10,13,3,18,0.00,0,,201
2013-1-5,48,36,25,34,28,22,89,70,50,30.30,30.25,30.17,10,10,10,12,6,18,0.00,4,,198
2013-1-6,48,34,19,23,20,16,89,64,31,30.45,30.37,30.30,10,10,10,6,1,,0.00,0,,69
2013-1-7,52,33,14,29,21,12,92,70,35,30.36,30.24,30.11,10,10,10,12,2,16,0.00,0,,182
2013-1-8,57,39,21,46,34,21,100,77,44,30.22,30.11,30.03,10,9,2,14,4,20,0.01,3,Rain,176
2013-1-9,54,45,36,41,39,36,100,83,55,30.38,30.28,30.20,10,5,0,14,3,17,0.00,6,Fog,33
2013-1-10,54,49,44,54,49,39,100,96,66,30.18,29.93,29.81,10,5,2,12,6,,0.19,8,Rain,120
2013-1-11,66,54,43,50,46,37,100,80,42,29.83,29.76,29.64,10,10,10,17,9,24,0.00,2,,183
2013-1-12,57,41,25,32,25,18,86,70,30,30.11,29.98,29.82,10,9,5,20,11,28,0.07,7,Rain-Snow-Thunderstorm,360
2013-1-13,30,22,15,16,13,10,84,66,47,30.39,30.29,30.10,10,10,10,13,6,22,0.00,0,,350
2013-1-14,33,22,12,15,12,9,88,66,40,30.53,30.44,30.39,10,10,10,10,3,,0.00,1,,20
2013-1-15,35,25,14,17,14,11,88,68,39,30.40,30.32,30.25,10,10,10,8,5,,0.00,2,,12
2013-1-16,48,28,9,20,15,7,92,67,29,30.26,30.20,30.13,10,10,10,10,2,20,0.00,1,,248
2013-1-17,54,38,21,31,26,18,92,71,35,30.50,30.43,30.24,10,10,10,15,3,20,0.00,0,,16
2013-1-18,59,39,19,31,26,19,96,61,32,30.50,30.34,30.17,10,10,9,18,5,25,0.00,0,,193
2013-1-19,64,48,32,35,32,27,85,56,29,30.23,30.13,30.06,10,10,10,12,7,18,0.00,0,,210
2013-1-20,57,39,21,30,23,14,96,58,32,30.36,30.26,30.16,10,10,10,18,4,28,0.00,0,,26
2013-1-21,39,29,19,16,12,10,81,55,34,30.47,30.40,30.34,10,10,10,10,7,18,0.00,0,,23
2013-1-22,46,30,15,25,18,11,89,69,40,30.37,30.30,30.21,10,10,9,8,2,,0.00,0,,104
2013-1-23,60,38,17,39,27,15,92,71,44,30.30,30.23,30.15,10,9,6,12,1,,0.00,0,,82
2013-1-24,37,34,30,24,20,13,73,59,47,30.36,30.27,30.16,10,10,10,15,10,25,0.00,7,,38
2013-1-25,48,39,30,26,23,20,79,59,37,30.28,30.23,30.17,10,10,10,10,2,,0.00,3,,13
2013-1-26,57,39,21,34,28,20,96,58,26,30.28,30.18,30.09,10,10,9,18,5,23,0.00,4,Rain,162
2013-1-27,62,54,45,57,48,33,97,81,61,30.09,29.93,29.83,10,9,5,25,13,36,0.00,7,,174
2013-1-28,75,62,50,63,58,50,100,86,57,29.90,29.82,29.70,10,7,0,21,6,33,0.01,3,Fog,184
2013-1-29,69,60,51,63,56,52,100,93,75,29.69,29.60,29.44,10,6,0,17,9,30,1.59,7,Fog-Rain-Thunderstorm,163
2013-1-30,36,28,21,22,21,19,92,77,57,30.08,30.04,29.99,10,10,9,7,3,21,0.00,1,,210
2013-1-31,44,31,18,28,18,7,96,71,51,30.52,30.24,30.03,10,10,8,21,5,26,0.00,2,,1